Location: Gransden
(52.1833°N, 0.1333°W)
Time: 15:49:25
(UTC+00:00)

Daily predictions for brighter satellites

Satellite Brightness Start Highest point End
(mag) Time Altitude Azimuth Time Altitude Azimuth Time Altitude Azimuth
Cosmos 2082 Rocket 3.9 20:52:57 10° NW 20:57:43 28° WSW 21:02:28 10° SSW
Cosmos 2297 3.7 20:52:35 10° SSW 20:58:17 80° ESE 21:04:03 10° NNE
SPOT 1/Viking Rocket 3.6 20:53:31 10° SSE 20:58:39 73° ENE 21:03:48 10° NNW
STARLINK-1216 3.7 20:56:03 10° W 21:00:13 86° N 21:04:23 10° E
Cosmos 1766 3.5 20:56:15 10° N 21:00:13 60° ENE 21:04:10 10° SSE
Cosmos 1975 Rocket 4.0 20:58:43 10° SSE 21:02:39 32° E 21:06:34 10° NNE
STARLINK-1205 3.7 20:58:51 10° W 21:03:01 82° N 21:07:11 10° E
NOSS 3-2 (C) 4.1 20:56:22 10° NW 21:03:42 87° NE 21:12:04 10° SE
STARLINK-1237 3.7 21:01:03 10° W 21:05:12 84° N 21:09:23 10° E
SPOT 5 3.4 21:01:01 10° SE 21:06:13 57° ENE 21:11:29 10° N
Cosmos 1486 Rocket 4.3 21:01:24 10° NNW 21:06:41 61° ENE 21:11:54 10° SE
STARLINK-1218 3.7 21:03:50 10° W 21:08:01 83° N 21:12:10 10° E
Cosmos 2369 Rocket 2.8 21:03:25 10° S 21:08:32 36° ESE 21:13:40 10° NE
SL-27 R/B 2.6 21:05:50 10° NNW 21:09:26 69° ENE 21:12:56 10° SSE
STARLINK-1203 3.8 21:05:42 10° W 21:09:55 83° N 21:14:09 10° E
STARLINK-1202 3.7 21:06:00 10° W 21:10:10 83° N 21:14:20 10° E
STARLINK-1444 4.0 21:10:08 10° SSE 21:10:33 11° SE 21:10:33 11° SE
STARLINK-1452 4.0 21:10:11 10° SSE 21:10:39 11° SE 21:10:39 11° SE
STARLINK-1436 (VISORSAT) 4.0 21:10:21 10° SSE 21:10:48 11° SE 21:10:48 11° SE
STARLINK-1399 4.0 21:10:20 10° SSE 21:10:51 11° SE 21:10:54 11° SE
STARLINK-1393 4.0 21:10:20 10° SSE 21:10:51 11° SE 21:10:55 11° SE
STARLINK-1414 4.0 21:10:20 10° SSE 21:10:52 11° SE 21:10:55 11° SE
STARLINK-1404 4.0 21:10:20 10° SSE 21:10:52 11° SE 21:10:55 11° SE
STARLINK-1392 4.0 21:10:20 10° SSE 21:10:52 11° SE 21:10:56 11° SE
STARLINK-1416 4.0 21:10:21 10° SSE 21:10:52 11° SE 21:10:55 11° SE
STARLINK-1408 4.0 21:10:21 10° SSE 21:10:52 11° SE 21:10:56 11° SE
STARLINK-1415 4.0 21:10:21 10° SSE 21:10:53 11° SE 21:10:55 11° SE
STARLINK-1395 4.0 21:10:21 10° SSE 21:10:53 11° SE 21:10:57 11° SE
STARLINK-1437 4.0 21:10:21 10° SSE 21:10:53 11° SE 21:10:54 11° SE
STARLINK-1417 4.0 21:10:21 10° SSE 21:10:53 11° SE 21:10:55 11° SE
STARLINK-1406 4.0 21:10:21 10° SSE 21:10:53 11° SE 21:10:56 11° SE
STARLINK-1450 4.0 21:10:21 10° SSE 21:10:53 11° SE 21:10:56 11° SE
STARLINK-1401 4.0 21:10:21 10° SSE 21:10:53 11° SE 21:10:56 11° SE
STARLINK-1402 4.0 21:10:21 10° SSE 21:10:53 11° SE 21:10:57 11° SE
STARLINK-1394 4.0 21:10:21 10° SSE 21:10:53 11° SE 21:10:58 11° SE
STARLINK-1413 4.0 21:10:22 10° SSE 21:10:54 11° SE 21:10:56 11° SE
STARLINK-1460 4.0 21:10:22 10° SSE 21:10:54 11° SE 21:10:57 11° SE
STARLINK-1397 4.0 21:10:22 10° SSE 21:10:54 11° SE 21:10:59 11° SE
STARLINK-1420 4.0 21:10:23 10° SSE 21:10:55 11° SE 21:10:59 11° SE
STARLINK-1458 4.0 21:10:23 10° SSE 21:10:55 11° SE 21:10:58 11° SE
STARLINK-1445 4.0 21:10:23 10° SSE 21:10:55 11° SE 21:10:58 11° SE
STARLINK-1440 4.0 21:10:23 10° SSE 21:10:55 11° SE 21:10:59 11° SE
STARLINK-1454 4.0 21:10:23 10° SSE 21:10:55 11° SE 21:10:58 11° SE
STARLINK-1398 4.0 21:10:24 10° SSE 21:10:55 11° SE 21:10:57 11° SE
STARLINK-1419 4.0 21:10:23 10° SSE 21:10:56 11° SE 21:11:00 11° SE
STARLINK-1457 4.0 21:10:24 10° SSE 21:10:56 11° SE 21:10:59 11° SE
STARLINK-1446 4.0 21:10:24 10° SSE 21:10:56 11° SE 21:10:59 11° SE
STARLINK-1396 4.0 21:10:23 10° SSE 21:10:56 11° SE 21:11:01 11° SE
STARLINK-1455 4.0 21:10:24 10° SSE 21:10:56 11° SE 21:10:59 11° SE
STARLINK-1451 4.0 21:10:24 10° SSE 21:10:56 11° SE 21:10:59 11° SE
STARLINK-1447 4.0 21:10:24 10° SSE 21:10:56 11° SE 21:11:00 11° SE
STARLINK-1456 4.0 21:10:24 10° SSE 21:10:56 11° SE 21:11:00 11° SE
STARLINK-1449 4.0 21:10:24 10° SSE 21:10:56 11° SE 21:10:59 11° SE
STARLINK-1422 4.0 21:10:24 10° SSE 21:10:56 11° SE 21:11:01 11° SE
STARLINK-1453 4.0 21:10:24 10° SSE 21:10:57 11° SE 21:11:01 11° SE
STARLINK-1443 4.0 21:10:25 10° SSE 21:10:57 11° SE 21:11:00 11° SE
STARLINK-1448 4.0 21:10:25 10° SSE 21:10:57 11° SE 21:11:01 11° SE
STARLINK-1423 4.0 21:10:25 10° SSE 21:10:57 11° SE 21:11:00 11° SE
STARLINK-1405 4.0 21:10:25 10° SSE 21:10:57 11° SE 21:11:01 11° SE
STARLINK-1421 4.0 21:10:25 10° SSE 21:10:58 11° SE 21:11:01 11° SE
STARLINK-1439 4.0 21:10:26 10° SSE 21:10:58 11° SE 21:11:00 11° SE
STARLINK-1407 4.0 21:10:26 10° SSE 21:10:58 11° SE 21:11:01 11° SE
STARLINK-1409 4.0 21:10:26 10° SSE 21:10:58 11° SE 21:11:02 11° SE
STARLINK-1441 4.0 21:10:26 10° SSE 21:10:59 11° SE 21:11:03 11° SE
STARLINK-1400 4.0 21:10:27 10° SSE 21:10:59 11° SE 21:11:04 11° SE
STARLINK-1442 4.0 21:10:28 10° SSE 21:10:59 11° SE 21:11:05 11° SE
STARLINK-1370 4.0 21:10:28 10° SSE 21:10:59 11° SE 21:11:05 11° SE
STARLINK-1351 4.0 21:10:27 10° SSE 21:10:59 11° SE 21:11:03 11° SE
STARLINK-1434 4.0 21:10:27 10° SSE 21:11:00 11° SE 21:11:03 11° SE
STARLINK-1410 4.0 21:10:27 10° SSE 21:11:00 11° SE 21:11:04 11° SE
STARLINK-1433 4.0 21:10:27 10° SSE 21:11:00 11° SE 21:11:03 11° SE
STARLINK-1418 4.0 21:10:28 10° SSE 21:11:00 11° SE 21:11:05 11° SE
STARLINK-1412 4.0 21:10:28 10° SSE 21:11:00 11° SE 21:11:05 11° SE
STARLINK-1403 4.0 21:10:28 10° SSE 21:11:00 11° SE 21:11:04 11° SE
STARLINK-1411 4.0 21:10:28 10° SSE 21:11:00 11° SE 21:11:04 11° SE
STARLINK-1438 4.0 21:10:31 10° SSE 21:11:03 11° SE 21:11:09 11° SE
Aureole 2 Rocket 3.3 21:09:38 10° SW 21:12:33 44° WNW 21:15:21 10° NNE
STARLINK-1254 3.7 21:08:49 10° W 21:12:59 84° N 21:17:09 10° E
NOSS 2-2 (E) 3.2 21:09:28 10° SW 21:13:05 82° SE 21:17:24 10° NE
COSMOS 2487 4.4 21:11:40 10° N 21:14:17 19° NE 21:16:52 10° E
NOSS 3-4 (A) 4.4 21:11:33 10° SSE 21:16:13 24° ESE 21:21:07 10° ENE
NOSS 3-4 (C) 4.5 21:11:40 10° SSE 21:16:20 24° ESE 21:21:13 10° ENE
STARLINK-1235 3.3 21:13:55 10° W 21:17:08 52° SSW 21:20:20 10° SE
STARLINK-1231 3.7 21:13:48 10° W 21:17:58 86° N 21:22:08 10° E
Terra 2.2 21:15:23 10° SE 21:20:00 53° ENE 21:24:39 10° N
STARLINK-1246 3.8 21:15:59 10° W 21:20:09 81° N 21:24:20 10° E
Cosmos 1242 Rocket 3.8 21:19:01 10° SSE 21:22:08 26° E 21:25:16 10° NE
STARLINK-1232 3.7 21:18:48 10° W 21:22:58 88° N 21:27:08 10° E
COSMOS 2455 4.2 21:19:11 10° SSE 21:23:17 19° ESE 21:27:25 10° ENE
Meteor 1-23 Rocket 4.5 21:18:56 10° SSW 21:24:35 74° WNW 21:30:14 10° N
STARLINK-1224 3.8 21:20:59 10° W 21:25:09 80° N 21:29:19 10° E
Okean 1 Rocket 4.1 21:21:48 10° NNW 21:26:04 45° W 21:30:17 10° SSW
STARLINK-1208 3.6 21:23:45 10° WNW 21:27:55 89° N 21:32:05 10° ESE
Cosmos 1455 Rocket 3.2 21:24:20 10° N 21:28:40 64° ENE 21:32:49 11° SSE
STARLINK-1225 3.8 21:25:59 10° W 21:30:09 79° N 21:34:19 10° E
Cosmos 2026 Rocket 4.2 21:26:30 10° S 21:32:39 58° E 21:38:54 10° NNE
STARLINK-1271 3.6 21:28:45 10° WNW 21:32:55 89° SSW 21:37:05 10° ESE
BREEZE-M DEB (TANK) 4.1 21:16:06 10° WSW 21:33:03 55° SSE 21:37:24 10° E
STARLINK-1230 3.8 21:30:59 10° W 21:35:08 79° N 21:39:18 10° E
Cosmos 1805 4.0 21:31:34 10° NNW 21:35:24 51° W 21:39:12 10° S
Cosmos 1553 Rocket 4.4 21:30:38 10° N 21:36:48 54° ENE 21:42:27 12° SSE
STARLINK-1154 3.6 21:33:44 10° WNW 21:37:53 86° SSW 21:42:03 10° ESE
Lacrosse 4 Rocket 4.3 21:36:12 10° N 21:38:13 13° NNE 21:40:12 10° NE
NOSS 2-2 (C) 3.4 21:34:53 10° SW 21:38:29 77° NW 21:42:47 10° NE
Cosmos 1470 3.1 21:35:32 10° N 21:39:20 51° ENE 21:42:34 13° SSE
STARLINK-1243 3.8 21:35:58 10° W 21:40:07 78° N 21:44:17 10° E
Cosmos 1867 3.6 21:35:19 10° NW 21:40:50 89° NE 21:45:53 12° SE
Cosmos 1340 Rocket 4.3 21:37:28 10° N 21:40:57 26° ENE 21:44:16 11° ESE
ERBS 4.0 21:38:50 10° WNW 21:41:55 34° N 21:44:59 10° ENE
CARTOSAT-1 3.8 21:37:59 10° S 21:42:17 69° WSW 21:46:37 10° NNW
STARLINK-60 3.3 21:39:38 10° SW 21:42:38 40° SSE 21:45:40 10° E
STARLINK-1197 3.6 21:38:42 10° WNW 21:42:52 84° SSW 21:47:02 10° ESE
ATLAS 2AS CENTAUR R/B 3.4 21:36:35 10° S 21:44:01 45° ESE 21:51:27 10° NE
ERS-1 Rocket 3.3 21:39:38 10° S 21:44:37 66° WSW 21:49:40 10° NNW
STARLINK-1236 3.8 21:40:55 10° W 21:45:05 78° N 21:49:15 10° E
Resurs 01 Rocket 4.1 21:42:50 10° SW 21:45:50 18° W 21:48:52 10° NW
Cosmos 1378 3.9 21:42:34 10° SSW 21:46:13 53° WNW 21:49:52 10° N
BREEZE M DEB (TANK) 2.6 21:43:18 10° WSW 21:47:16 40° S 21:49:22 10° E
STARLINK-1198 3.6 21:43:41 10° WNW 21:47:51 81° SSW 21:52:00 10° ESE
MTI 4.4 21:47:08 10° NNE 21:50:08 38° E 21:52:20 16° SSE
STARLINK-1209 4.1 21:47:31 10° W 21:50:35 32° SSW 21:52:43 16° SSE
EXPRESS MD2 3.8 21:48:13 10° WSW 21:51:44 63° SSE 21:58:46 10° E
STARLINK-1199 3.6 21:48:40 10° WNW 21:52:49 79° SSW 21:56:58 10° ESE
Cosmos 968 Rocket 3.5 21:48:05 10° NNW 21:53:15 78° WSW 21:57:42 14° SSE
STARLINK-1228 4.1 21:50:10 10° W 21:53:25 34° SSW 21:55:41 16° SSE
Cosmos 1953 3.3 21:49:58 10° N 21:53:41 35° ENE 21:56:39 14° SE
Cosmos 1733 4.1 21:51:01 10° NNW 21:54:40 45° W 21:58:16 10° SSW
STARLINK-1269 3.8 21:50:54 10° W 21:55:04 78° N 21:59:13 10° E
Cosmos 1842 3.2 21:51:14 10° S 21:55:08 89° ESE 21:59:03 10° N
Cosmos 1726 3.2 21:53:39 10° N 21:57:04 33° ENE 21:59:43 15° SE
STARLINK-1234 4.2 21:54:28 10° W 21:57:32 31° SSW 21:59:34 17° SSE
STARLINK-1210 3.6 21:53:39 10° WNW 21:57:48 76° SSW 22:01:56 10° ESE
STARLINK-1212 3.8 21:56:04 10° W 21:58:54 32° SSW 22:00:37 18° SSE
STARLINK-1105 3.8 21:56:31 10° W 21:59:20 32° SSW 22:01:02 18° SSE
ATLAS CENTAUR R/B 2.6 21:57:56 10° NW 21:59:28 22° NNE 22:01:16 10° ENE
BREEZE-M DEB (TANK) 4.4 21:55:54 10° SSW 21:59:33 39° SE 22:10:31 10° ENE
STARLINK-1200 3.8 21:55:53 10° W 22:00:03 79° N 22:04:12 10° E
STARLINK-1247 3.8 21:57:23 10° W 22:00:14 32° SSW 22:01:55 19° SSE
STARLINK-1227 3.8 21:57:52 10° W 22:00:42 31° SSW 22:02:21 19° SSE
STARLINK-1226 3.9 21:58:46 10° W 22:01:36 31° SSW 22:03:14 19° SSE
STARLINK-1215 3.9 21:59:40 10° W 22:02:30 31° SSW 22:04:06 19° SSE
Cosmos 1536 Rocket 4.2 21:59:22 15° SSE 22:02:32 39° E 22:06:38 10° NNE
STARLINK-1219 3.6 21:58:38 10° WNW 22:02:47 73° SSW 22:06:50 11° ESE
STARLINK-1217 3.9 22:01:29 10° W 22:04:17 30° SSW 22:05:50 19° SSE
STARLINK-1192 3.7 22:00:53 10° W 22:05:02 79° N 22:09:13 10° E
STARLINK-1229 3.9 22:02:23 10° W 22:05:11 30° SSW 22:06:42 19° SSE
Cosmos 2263 4.2 21:59:42 10° SSW 22:05:15 67° ESE 22:10:50 10° NE
Cosmos 292 Rocket 3.8 22:00:48 10° SSW 22:05:38 78° ESE 22:10:32 10° NNE
Cosmos 1544 Rocket 3.6 22:01:33 10° NNW 22:05:54 77° W 22:09:33 14° S
STARLINK-1270 4.0 22:03:18 10° W 22:06:05 29° SSW 22:07:35 19° SSE
SL-4 R/B 2.5 22:01:43 10° SW 22:06:21 52° SSE 22:11:04 10° E
STARLINK-1211 3.6 22:03:37 10° WNW 22:07:45 70° SSW 22:11:37 12° ESE
STARLINK-1189 4.0 22:05:07 10° W 22:07:52 29° SSW 22:09:19 20° SSE
ATLAS CENTAUR R/B 2.0 22:03:54 10° S 22:07:54 37° ESE 22:11:43 10° NE
STARLINK-1188 4.0 22:06:01 10° W 22:08:47 28° SSW 22:10:11 20° S
Thor Agena Rocket 4.4 22:04:07 10° NNE 22:08:57 35° E 22:12:34 16° SSE
STARLINK-1244 3.7 22:05:51 10° W 22:10:01 80° N 22:14:11 10° E
Okean 2 4.2 22:06:19 10° SSW 22:10:22 52° WNW 22:14:29 10° N
Cosmos 1758 3.4 22:06:57 10° NNW 22:11:02 86° W 22:14:11 17° S
STARLINK-1191 4.1 22:08:30 10° W 22:11:13 27° SSW 22:12:31 20° S
STARLINK-1221 4.1 22:09:24 10° W 22:12:05 27° SSW 22:13:21 20° S
STARLINK-1245 3.6 22:08:36 10° WNW 22:12:44 67° SSW 22:16:23 13° ESE
Cosmos 1271 Rocket 2.8 22:09:38 15° S 22:12:48 67° E 22:16:46 10° NNE
STARLINK-1222 4.1 22:10:21 10° W 22:13:02 26° SSW 22:14:16 20° S
Meteor 2-10 4.0 22:08:20 10° N 22:13:23 69° ENE 22:17:18 17° SSE
STARLINK-1214 4.1 22:11:17 10° W 22:13:58 26° SSW 22:15:10 20° S
STARLINK-29 3.4 22:11:00 10° SW 22:14:02 38° SSE 22:17:03 10° E
Cosmos 2297 Rocket 3.8 22:09:47 10° NNW 22:14:40 29° NE 22:19:32 10° E
STARLINK-1138 3.7 22:10:50 10° W 22:15:00 80° N 22:19:09 10° E
NOSS 5 (C) 4.3 22:12:37 10° NW 22:15:41 88° NE 22:18:18 18° SE
STARLINK-1233 3.6 22:13:34 10° WNW 22:17:41 64° SSW 22:21:10 14° ESE
STARLINK-1143 3.7 22:15:49 10° W 22:19:59 81° N 22:24:08 10° E
STARLINK-1187 4.4 22:17:55 10° W 22:20:32 23° SW 22:21:37 19° S
STARLINK-1204 3.7 22:18:34 10° WNW 22:22:41 61° SSW 22:25:57 15° SE
Cosmos 1707 2.7 22:21:10 18° S 22:24:00 69° E 22:27:53 10° NNE
Cosmos 1943 Rocket 2.9 22:18:56 10° SW 22:24:24 56° NW 22:29:58 10° NNE
STARLINK-1241 3.7 22:20:49 10° W 22:24:59 82° N 22:29:09 10° E
STARLINK-1238 3.7 22:23:32 10° WNW 22:27:37 59° SSW 22:30:43 17° SE
Cosmos 1503 Rocket 4.4 22:22:47 10° NNW 22:28:01 58° WSW 22:32:03 17° S
Aureole 3 3.4 22:26:37 10° N 22:29:37 40° ENE 22:31:08 22° SE
STARLINK-1239 3.6 22:25:47 10° W 22:29:57 84° N 22:34:07 10° E
Cosmos 1606 Rocket 4.4 22:27:50 10° N 22:31:55 38° ENE 22:34:49 17° SE
STARLINK-1201 3.7 22:28:32 10° WNW 22:32:36 56° SSW 22:35:31 18° SE
EO 1 Del DPAF 3.7 22:29:04 10° NNE 22:32:42 43° E 22:34:47 22° SSE
Meteor 1-21 4.5 22:27:22 10° SSW 22:32:58 70° WNW 22:38:35 10° N
STARLINK-1240 3.6 22:30:46 10° W 22:34:56 85° N 22:39:06 10° E
USA 215 3.5 22:28:43 10° ESE 22:35:16 74° NNE 22:41:48 10° WNW
ALOS 2 3.6 22:32:54 15° SE 22:36:05 38° ENE 22:40:09 10° N
Meteor 1-16 Rocket 4.1 22:31:04 10° N 22:36:37 79° ENE 22:40:29 19° SSE
STARLINK-1206 3.8 22:33:31 10° WNW 22:37:34 53° SSW 22:40:17 19° SE
Cosmos 2292 Rocket 3.5 22:36:31 23° SSE 22:38:02 38° E 22:40:54 10° NNE
CENTAUR R/B 3.8 22:30:39 10° NW 22:38:08 44° WSW 22:44:44 16° S
STARLINK-1320 4.3 22:39:39 21° ESE 22:39:39 21° ESE 22:41:30 10° E
STARLINK-1322 4.3 22:39:58 21° SE 22:39:58 21° SE 22:41:50 10° E
STARLINK-1324 4.3 22:40:21 21° SE 22:40:21 21° SE 22:42:13 10° E
STARLINK-1216 3.6 22:35:45 10° W 22:39:55 87° NNE 22:44:05 10° E
STARLINK-1294 4.3 22:40:38 21° SE 22:40:38 21° SE 22:42:31 10° E
STARLINK-1261 4.3 22:40:57 22° SE 22:40:57 22° SE 22:42:50 10° E
STARLINK-1325 4.3 22:41:17 22° SE 22:41:17 22° SE 22:43:12 10° E
BREEZE-M DEB (TANK) 3.0 22:37:17 10° W 22:40:55 51° SSW 22:44:51 10° ESE
STARLINK-1333 4.2 22:41:36 22° SE 22:41:36 22° SE 22:43:32 10° E
STARLINK-1334 4.2 22:41:56 22° SE 22:41:56 22° SE 22:43:53 10° E
STARLINK-1326 4.2 22:42:18 22° SE 22:42:18 22° SE 22:44:16 10° E
STARLINK-1323 4.2 22:42:35 22° SE 22:42:35 22° SE 22:44:33 10° E
STARLINK-1349 4.2 22:42:54 23° SE 22:42:54 23° SE 22:44:54 10° E
STARLINK-1205 3.9 22:38:29 10° WNW 22:42:31 50° SSW 22:45:04 21° SE
STARLINK-1336 4.2 22:43:14 23° SE 22:43:14 23° SE 22:45:15 10° E
STARLINK-1331 4.2 22:43:33 23° SE 22:43:33 23° SE 22:45:35 10° E
BREEZE-M DEB (TANK) 3.5 22:38:10 10° SSW 22:43:03 22° SSE 22:43:53 20° SE
STARLINK-1344 4.2 22:43:52 23° SE 22:43:52 23° SE 22:45:55 10° E
STARLINK-1343 4.1 22:44:13 23° SE 22:44:13 23° SE 22:46:16 10° E
STARLINK-1346 4.1 22:44:27 24° SE 22:44:27 24° SE 22:46:38 10° E
STARLINK-1399 4.5 22:46:00 12° E 22:46:00 12° E 22:46:16 10° E
STARLINK-1393 4.5 22:46:00 12° E 22:46:00 12° E 22:46:16 10° E
STARLINK-1414 4.5 22:46:00 12° E 22:46:00 12° E 22:46:16 10° E
STARLINK-1404 4.5 22:46:01 12° E 22:46:01 12° E 22:46:17 10° E
STARLINK-1416 4.5 22:46:01 12° E 22:46:01 12° E 22:46:17 10° E
STARLINK-1392 4.4 22:45:59 13° E 22:45:59 13° E 22:46:17 10° E
STARLINK-1415 4.5 22:46:02 12° E 22:46:02 12° E 22:46:17 10° E
STARLINK-1408 4.5 22:46:01 12° E 22:46:01 12° E 22:46:17 10° E
STARLINK-1395 4.4 22:46:00 13° E 22:46:00 13° E 22:46:18 10° E
STARLINK-1417 4.5 22:46:02 12° E 22:46:02 12° E 22:46:18 10° E
STARLINK-1450 4.5 22:46:02 12° E 22:46:02 12° E 22:46:18 10° E
STARLINK-1406 4.5 22:46:02 13° E 22:46:02 13° E 22:46:18 10° E
STARLINK-1401 4.5 22:46:02 12° E 22:46:02 12° E 22:46:18 10° E
STARLINK-1402 4.4 22:46:01 13° E 22:46:01 13° E 22:46:18 10° E
STARLINK-1413 4.5 22:46:02 12° E 22:46:02 12° E 22:46:18 10° E
STARLINK-1394 4.4 22:46:00 13° E 22:46:00 13° E 22:46:19 10° E
STARLINK-1460 4.5 22:46:02 12° E 22:46:02 12° E 22:46:19 10° E
STARLINK-1397 4.4 22:46:01 13° E 22:46:01 13° E 22:46:20 10° E
STARLINK-1328 4.1 22:44:51 23° SE 22:44:51 23° SE 22:46:56 10° E
STARLINK-1420 4.4 22:46:02 13° E 22:46:02 13° E 22:46:20 10° E
STARLINK-1458 4.5 22:46:03 13° E 22:46:03 13° E 22:46:20 10° E
STARLINK-1445 4.4 22:46:03 13° E 22:46:03 13° E 22:46:20 10° E
STARLINK-1440 4.4 22:46:03 13° E 22:46:03 13° E 22:46:20 10° E
STARLINK-1454 4.5 22:46:04 12° E 22:46:04 12° E 22:46:20 10° E
STARLINK-1398 4.5 22:46:06 12° E 22:46:06 12° E 22:46:20 10° E
STARLINK-1457 4.5 22:46:04 12° E 22:46:04 12° E 22:46:21 10° E
STARLINK-1419 4.4 22:46:02 13° E 22:46:02 13° E 22:46:21 10° E
STARLINK-1446 4.4 22:46:04 13° E 22:46:04 13° E 22:46:21 10° E
STARLINK-1455 4.5 22:46:05 12° E 22:46:05 12° E 22:46:21 10° E
STARLINK-1451 4.5 22:46:05 12° E 22:46:05 12° E 22:46:21 10° E
STARLINK-1396 4.4 22:46:02 13° E 22:46:02 13° E 22:46:21 10° E
STARLINK-1456 4.4 22:46:04 13° E 22:46:04 13° E 22:46:21 10° E
STARLINK-1447 4.4 22:46:04 13° E 22:46:04 13° E 22:46:21 10° E
STARLINK-1449 4.5 22:46:05 12° E 22:46:05 12° E 22:46:21 10° E
STARLINK-1422 4.4 22:46:03 13° E 22:46:03 13° E 22:46:22 10° E
STARLINK-1443 4.4 22:46:05 13° E 22:46:05 13° E 22:46:22 10° E
STARLINK-1453 4.4 22:46:04 13° E 22:46:04 13° E 22:46:22 10° E
STARLINK-1423 4.5 22:46:06 13° E 22:46:06 13° E 22:46:22 10° E
STARLINK-1448 4.4 22:46:05 13° E 22:46:05 13° E 22:46:22 10° E
STARLINK-1405 4.5 22:46:06 13° E 22:46:06 13° E 22:46:23 10° E
STARLINK-1407 4.4 22:46:06 13° E 22:46:06 13° E 22:46:23 10° E
STARLINK-1421 4.4 22:46:05 13° E 22:46:05 13° E 22:46:23 10° E
STARLINK-1439 4.5 22:46:07 12° E 22:46:07 12° E 22:46:23 10° E
STARLINK-1409 4.4 22:46:07 13° E 22:46:07 13° E 22:46:24 10° E
STARLINK-1441 4.4 22:46:06 13° E 22:46:06 13° E 22:46:24 10° E
STARLINK-1400 4.4 22:46:06 13° E 22:46:06 13° E 22:46:25 10° E
STARLINK-1351 4.4 22:46:07 13° E 22:46:07 13° E 22:46:25 10° E
STARLINK-1434 4.4 22:46:07 13° E 22:46:07 13° E 22:46:25 10° E
STARLINK-1433 4.4 22:46:08 13° E 22:46:08 13° E 22:46:25 10° E
STARLINK-1410 4.4 22:46:07 13° E 22:46:07 13° E 22:46:25 10° E
STARLINK-1411 4.4 22:46:08 13° E 22:46:08 13° E 22:46:26 10° E
STARLINK-1403 4.4 22:46:08 13° E 22:46:08 13° E 22:46:26 10° E
STARLINK-1412 4.4 22:46:09 13° E 22:46:09 13° E 22:46:27 10° E
STARLINK-1418 4.4 22:46:08 13° E 22:46:08 13° E 22:46:27 10° E
STARLINK-1442 4.4 22:46:07 13° E 22:46:07 13° E 22:46:26 10° E
STARLINK-1370 4.4 22:46:08 13° E 22:46:08 13° E 22:46:26 10° E
STARLINK-1438 4.4 22:46:10 13° E 22:46:10 13° E 22:46:30 10° E
STARLINK-1354 4.1 22:45:12 24° SE 22:45:12 24° SE 22:47:18 10° E
ATLAS 3B R/B 2.8 22:38:10 10° NW 22:44:51 63° SW 22:50:04 18° SSE
STARLINK-1237 3.6 22:40:44 10° WNW 22:44:54 89° NNE 22:49:04 10° ESE
STARLINK-1347 4.1 22:45:30 24° SE 22:45:30 24° SE 22:47:38 10° E
Cosmos 1025 Rocket 3.2 22:41:45 15° SSW 22:45:14 73° W 22:49:36 10° N
STARLINK-1357 4.1 22:45:49 24° SE 22:45:49 24° SE 22:47:58 10° E
STARLINK-1335 4.1 22:46:09 24° SE 22:46:09 24° SE 22:48:18 10° E
STARLINK-1327 4.1 22:46:30 24° SE 22:46:30 24° SE 22:48:39 10° E
STARLINK-1340 4.1 22:46:51 24° SE 22:46:51 24° SE 22:49:03 10° E
STARLINK-1356 4.0 22:47:09 25° SE 22:47:09 25° SE 22:49:20 10° E
STARLINK-1345 4.0 22:47:29 25° SE 22:47:29 25° SE 22:49:42 10° E
STARLINK-1355 4.0 22:47:47 25° SE 22:47:47 25° SE 22:50:00 10° E
STARLINK-1218 3.9 22:43:29 10° WNW 22:47:29 47° SSW 22:49:51 22° SE
Cosmos 1656 Rocket 3.7 22:42:01 10° SSW 22:47:39 87° WNW 22:53:15 10° NNE
STARLINK-1321 4.0 22:48:07 25° SE 22:48:07 25° SE 22:50:21 10° E
STARLINK-1358 4.0 22:48:26 25° SE 22:48:26 25° SE 22:50:41 10° E
STARLINK-1332 4.0 22:48:46 25° SE 22:48:46 25° SE 22:51:02 10° E
STARLINK-1348 4.0 22:49:06 26° SE 22:49:06 26° SE 22:51:23 10° E
STARLINK-1330 4.0 22:49:25 26° SE 22:49:25 26° SE 22:51:43 10° E
Cosmos 1174 3.4 22:46:57 18° SSW 22:49:20 68° SE 22:53:17 10° NE
STARLINK-1363 4.0 22:49:44 26° SE 22:49:44 26° SE 22:52:03 10° E
STARLINK-52 2.9 22:46:20 10° SW 22:49:30 56° SSE 22:52:39 10° ENE
COSMOS 2487 3.1 22:46:13 10° NW 22:49:33 43° WSW 22:51:18 23° SSW
FALCON 9 DEB 3.4 22:46:16 10° SW 22:49:33 44° SSE 22:52:51 10° E
STARLINK-1337 3.9 22:50:03 26° SE 22:50:03 26° SE 22:52:23 10° E
STARLINK-1203 3.6 22:45:37 10° WNW 22:49:50 89° SSW 22:54:03 10° ESE
STARLINK-1202 3.6 22:45:42 10° WNW 22:49:51 89° SW 22:54:01 10° ESE
STARLINK-1342 3.9 22:50:23 26° SE 22:50:23 26° SE 22:52:44 10° E
STARLINK-1364 3.9 22:50:42 26° SE 22:50:42 26° SE 22:53:04 10° E
STARLINK-1376 3.9 22:51:01 27° SE 22:51:01 27° SE 22:53:24 10° E
STARLINK-1360 3.9 22:51:20 27° SE 22:51:20 27° SE 22:53:45 10° E
Timation 2 Rocket 4.0 22:44:51 10° NNW 22:51:14 86° ENE 22:55:54 18° SSE
STARLINK-1361 3.9 22:51:41 27° SE 22:51:41 27° SE 22:54:06 10° E
SeaSat 1 3.1 22:46:57 10° NE 22:51:34 38° ESE 22:54:19 21° SSE
STARLINK-1367 3.9 22:51:59 27° SE 22:51:59 27° SE 22:54:29 10° E
STARLINK-1366 3.9 22:52:20 27° SE 22:52:20 27° SE 22:54:47 10° E
Cosmos 2227 Rocket 3.3 22:47:04 10° NNW 22:52:25 40° NE 22:57:44 10° ESE
STARLINK-1254 4.0 22:48:28 10° WNW 22:52:27 45° SSW 22:54:37 23° SSE
Cosmos 2369 Rocket 3.1 22:46:57 10° SW 22:52:27 50° NW 22:57:57 10° NNE
Cosmos 1242 Rocket 4.3 22:53:41 10° SW 22:56:57 29° WNW 23:00:13 10° N
STARLINK-1231 4.1 22:53:28 10° WNW 22:57:24 42° SSW 22:59:25 24° SSE
Terra 3.5 22:54:11 10° SSW 22:58:03 24° W 23:01:57 10° NW
Meteor 2-19 Rocket 4.4 22:53:34 18° S 22:58:20 81° E 23:04:28 10° NNE
STARLINK-1246 3.5 22:55:41 10° WNW 22:59:50 85° SSW 23:04:00 10° ESE
Cosmos 1908 3.2 22:57:02 10° N 23:00:52 77° ENE 23:02:55 26° SSE
Meteor 2-5 Rocket 4.4 22:57:26 20° SSE 23:00:54 42° E 23:06:13 10° NNE
STARLINK-1338 4.1 23:00:09 24° S 23:01:41 33° SSE 23:05:11 10° E
STARLINK-1232 4.1 22:58:28 10° W 23:02:22 40° SSW 23:04:12 25° SSE
Cosmos 2228 3.0 22:59:13 10° N 23:03:29 74° E 23:05:56 24° SSE
STARLINK-1224 3.5 23:00:40 10° WNW 23:04:49 82° SSW 23:08:59 10° ESE
NOSS 3-4 (A) 3.5 23:00:19 10° SW 23:06:20 85° NW 23:12:51 10° NE
NOSS 3-4 (C) 3.5 23:00:25 10° SW 23:06:25 86° NW 23:12:58 10° NE
STARLINK-1208 4.2 23:03:26 10° W 23:07:17 38° SSW 23:08:57 26° SSE
COSMOS 2455 2.8 23:02:22 10° SSW 23:08:24 85° SE 23:14:29 10° NE
Cosmos 921 Rocket 4.0 23:06:33 22° SE 23:08:28 32° E 23:12:23 10° NE
STARLINK-1371 4.0 23:07:34 23° SSW 23:09:22 36° SSE 23:12:58 10° E
STARLINK-1225 3.5 23:05:39 10° WNW 23:09:49 80° SSW 23:13:58 10° ESE
Cosmos 2315 Rocket 4.0 23:05:02 10° N 23:11:17 88° W 23:15:39 21° S
KORONAS-FOTON 3.9 23:10:17 27° S 23:12:14 66° E 23:16:05 10° NNE
STARLINK-1271 4.3 23:08:28 10° W 23:12:16 35° SSW 23:13:46 26° S
STARLINK-1341 3.9 23:11:19 22° SSW 23:13:15 38° SSE 23:16:53 10° E
STARLINK-1230 3.5 23:10:38 10° WNW 23:14:47 77° SSW 23:18:56 10° ESE
Cosmos 1726 Rocket 3.5 23:11:44 10° N 23:16:05 81° E 23:18:33 25° SSE
STARLINK-1374 3.9 23:15:03 21° SSW 23:17:08 39° SSE 23:20:48 10° E
STARLINK-1154 4.4 23:13:27 10° W 23:17:13 33° SW 23:18:32 27° S
Cosmos 1340 Rocket 3.9 23:13:44 10° NNW 23:17:30 36° W 23:19:52 19° SSW
Lacrosse 4 Rocket 3.0 23:14:15 10° NNW 23:18:14 33° NE 23:22:06 10° ESE
STARLINK-60 3.0 23:15:26 10° W 23:18:37 80° N 23:21:50 10° E
ERBS 3.0 23:15:22 10° WNW 23:18:38 54° NNE 23:21:55 10° E
Cosmos 1300 3.5 23:15:08 10° N 23:18:48 42° ENE 23:20:53 22° SE
Cosmos 1892 Rocket 4.0 23:17:05 24° SSE 23:19:22 48° E 23:23:34 10° NNE
STARLINK-1243 3.5 23:15:37 10° WNW 23:19:46 74° SSW 23:23:54 10° ESE
STARLINK-1339 3.8 23:18:50 20° SSW 23:21:03 41° SSE 23:24:45 10° E
In-Cosmos 22 4.3 23:17:35 17° SSW 23:21:41 70° WNW 23:27:00 10° N
STARLINK-1197 4.5 23:18:27 10° W 23:22:09 31° SW 23:23:19 27° S
STARLINK-1236 3.5 23:20:35 10° WNW 23:24:43 71° SSW 23:28:43 11° ESE
STARLINK-1377 3.8 23:22:36 20° SW 23:24:59 43° SSE 23:28:43 10° E
Cosmos 2098 Rocket 4.4 23:19:36 19° S 23:25:14 86° E 23:32:39 10° N
RESURS DK-1 2.3 23:23:16 23° SSW 23:25:48 75° ESE 23:29:56 10° NE
SJ 16-02 2.4 23:22:47 10° NNW 23:27:00 41° ENE 23:30:29 14° SE
STARLINK-1353 3.7 23:26:24 18° SW 23:28:55 45° SSE 23:32:41 10° ENE
Cosmos 1953 4.0 23:26:39 10° NNW 23:29:56 25° W 23:32:20 15° SW
Cosmos 1674 2.8 23:29:21 25° SSW 23:31:26 71° WNW 23:35:15 10° N
Helios 1A 3.1 23:29:09 24° SSE 23:31:34 70° ENE 23:35:46 10° N
Cosmos 1726 3.9 23:29:07 10° NW 23:32:08 24° W 23:34:13 15° SW
STARLINK-1375 3.6 23:30:12 17° SW 23:32:54 48° SSE 23:36:41 10° ENE
STARLINK-1269 3.5 23:30:33 10° WNW 23:34:40 66° SSW 23:38:17 13° ESE
ATLAS 2AS CENTAUR R/B 3.4 23:26:53 10° WSW 23:34:53 69° NW 23:42:44 10° NE
STARLINK-1350 3.6 23:33:59 16° SW 23:36:50 50° SSE 23:40:39 10° ENE
STARLINK-1200 3.6 23:35:31 10° WNW 23:39:38 63° SSW 23:43:03 14° SE
STARLINK-1352 3.6 23:37:50 15° SW 23:40:51 52° SSE 23:44:40 10° ENE
SL-4 R/B 1.8 23:40:59 28° W 23:40:59 28° W 23:42:55 10° NW
Cosmos 1980 Rocket 4.4 23:42:25 10° ESE 23:44:06 11° E 23:45:47 10° ENE
STARLINK-1192 3.6 23:40:31 10° WNW 23:44:37 60° SSW 23:47:51 16° SE
STARLINK-1368 3.5 23:41:42 14° SW 23:44:52 55° SSE 23:48:44 10° ENE
SL-4 R/B 2.3 23:41:07 10° W 23:45:59 85° S 23:50:48 10° E
YAOGAN 11 4.1 23:43:59 25° SSE 23:46:30 78° ENE 23:50:49 10° NNW
ATLAS CENTAUR R/B 2.6 23:42:44 10° WSW 23:46:49 42° NW 23:50:38 10° NE
STARLINK-1369 3.5 23:45:34 13° SW 23:48:54 57° SSE 23:52:47 10° ENE
STARLINK-1244 3.6 23:45:29 10° WNW 23:49:34 57° SSW 23:52:36 17° SE
Meteor 1-24 Rocket 3.7 23:46:24 24° S 23:49:46 74° E 23:55:20 10° NNE
STARLINK-29 2.9 23:46:48 10° W 23:50:02 82° N 23:53:15 10° E
STARLINK-1372 3.4 23:49:26 12° SW 23:52:57 60° SSE 23:56:50 10° ENE
STARLINK-1138 3.7 23:50:28 10° WNW 23:54:31 54° SSW 23:57:23 18° SE
Cosmos 1455 4.0 23:52:19 10° NNE 23:55:29 25° ENE 23:58:11 12° ESE
